RH
56 61 66 68 69 69 70 72 76 80 87 90 90 90 90 89 89 88 89 88 82 76 70 66 65 66 70 76 81 88 95 98 99 99 99 100 100 100 100 100 99 98 97 98 98 97 96 94 94 95 96 97 98 98 98 96 95 93 93 95 97 98 100 99 98 97 96 96 96 97 99 100 100 100 100 98 95 92 92 88 85 80 72 64 63 64
55 59 63 65 66 67 69 71 72 76 82 87 90 90 90 90 90 90 90 90 86 82 77 72 68 67 67 71 76 84 92 97 98 99 99 99 99 100 100 100 99 99 98 98 98 98 96 93 92 93 94 96 97 98 97 96 94 93 92 93 94 95 97 97 96 94 93 95 98 100 100 100 100 100 100 99 97 94 94 92 90 86 82 74 72 72
54 56 60 62 64 66 68 68 70 72 78 84 88 90 90 90 90 90 92 90 90 87 84 78 74 70 68 69 73 79 88 95 98 98 98 98 99 100 100 100 100 99 99 98 99 98 96 94 93 92 94 94 96 96 96 94 92 92 90 92 92 93 94 94 93 91 89 90 93 97 100 100 100 100 100 100 98 97 96 94 92 91 88 84 80 78
52 55 58 62 64 65 66 67 67 69 73 79 84 87 88 89 90 90 92 92 91 90 89 84 80 76 72 71 73 77 84 92 96 98 98 98 98 99 100 100 100 100 99 98 99 98 97 96 94 94 94 94 95 96 94 93 92 92 90 92 92 93 94 95 93 90 86 85 87 92 100 100 100 100 100 100 99 98 98 96 94 93 92 90 86 82
53 56 59 61 62 63 64 66 66 66 68 73 78 83 86 88 89 90 91 92 90 89 88 88 85 80 76 73 74 76 82 89 94 98 98 97 98 98 100 100 100 100 100 99 98 98 98 97 96 95 94 93 94 94 93 92 92 92 92 92 93 94 96 96 93 89 84 83 85 90 99 100 100 100 100 100 100 99 98 97 96 94 94 92 90 88
58 60 60 61 62 62 63 64 64 63 63 67 72 77 82 85 87 88 90 92 90 89 86 90 88 84 79 76 74 76 79 86 92 96 98 97 96 96 98 99 100 100 100 99 99 99 99 98 98 97 95 93 92 92 92 92 92 92 93 94 94 94 95 95 93 90 86 86 88 92 97 99 100 100 100 100 100 99 99 98 97 95 94 93 92 91
62 63 62 61 62 64 63 62 61 61 60 62 66 71 76 81 84 86 89 90 92 91 90 90 90 88 83 78 76 75 76 82 88 94 97 96 95 94 96 98 100 100 100 100 100 99 99 99 99 98 96 94 92 92 92 92 92 92 92 93 94 93 93 93 92 91 90 92 93 96 97 98 99 99 100 100 100 99 98 98 97 96 94 93 92 92
63 64 61 62 64 64 62 61 60 60 60 60 62 64 68 74 78 82 87 90 91 92 92 92 91 90 86 80 76 74 74 77 83 90 94 96 94 93 93 96 98 100 100 100 100 100 99 100 100 99 98 96 94 93 94 92 92 92 92 92 92 92 91 91 91 91 91 92 93 95 96 97 98 98 98 98 99 99 98 98 97 96 94 93 92 92
66 66 65 66 66 64 61 60 60 60 60 60 60 60 62 66 71 76 82 86 88 90 92 92 92 91 88 83 78 74 72 73 78 84 91 94 94 93 92 94 97 99 100 100 100 100 99 100 100 100 99 98 97 96 96 94 92 90 91 92 92 91 90 89 89 89 90 90 90 91 92 94 96 98 98 96 96 96 96 96 96 96 94 93 93 94
70 71 72 72 71 68 65 64 63 62 60 59 58 58 59 61 64 69 74 79 83 87 90 92 92 92 91 87 81 76 71 71 74 80 87 90 92 93 92 93 96 98 100 100 100 99 99 99 100 100 99 98 98 97 96 94 92 90 91 90 90 90 89 88 87 87 87 87 87 87 87 90 93 96 99 97 94 92 92 94 94 94 94 92 92 93
73 74 74 76 74 72 70 70 69 66 62 59 57 56 56 58 60 62 66 71 76 82 89 92 92 92 92 90 85 78 73 71 73 77 82 87 90 92 92 93 94 97 99 100 99 99 98 98 99 99 99 98 98 97 96 94 92 90 91 90 89 89 88 86 85 83 82 82 83 83 83 85 87 90 95 98 96 92 88 89 90 90 90 90 90 92
76 76 76 78 78 76 72 73 71 68 63 59 56 54 53 54 54 56 60 64 69 75 82 89 92 92 92 92 89 84 77 74 73 75 78 83 87 90 92 93 94 96 98 98 98 98 97 97 97 98 98 97 97 97 96 94 92 90 91 90 88 87 87 85 82 80 77 76 76 77 79 80 82 84 87 92 95 94 88 88 88 88 88 88 89 90
79 78 78 81 81 78 74 74 71 66 61 58 55 53 52 53 53 54 56 61 63 66 73 84 90 92 90 92 92 90 85 78 74 74 76 80 84 89 92 93 94 95 96 98 98 97 95 95 95 95 95 96 96 95 94 92 90 89 90 89 87 86 85 83 80 77 74 71 70 71 73 75 76 78 80 86 92 94 92 90 90 89 89 88 88 88
80 79 79 82 82 80 77 76 72 67 63 61 60 60 62 60 58 56 56 56 55 57 62 77 87 92 90 90 92 92 90 84 79 75 74 77 82 87 92 93 94 94 95 96 97 96 94 94 94 93 93 93 94 94 93 91 89 88 88 87 86 84 82 81 79 76 72 68 66 66 67 69 71 73 75 80 88 94 94 92 91 90 90 90 89 88
82 82 81 84 83 81 78 77 76 74 74 73 71 69 67 62 58 54 53 51 48 47 51 68 82 91 92 92 92 93 92 90 84 77 72 74 78 84 89 92 93 93 94 95 95 95 94 92 92 92 92 92 91 92 92 90 87 84 83 82 81 80 78 77 77 76 73 68 65 63 64 65 66 67 69 74 83 92 93 92 90 89 89 90 89 89
84 84 83 85 84 82 79 78 78 79 79 75 70 64 58 52 49 48 49 48 45 42 43 58 75 88 92 92 92 93 93 92 87 80 73 71 74 78 84 89 90 92 91 92 93 94 93 92 90 90 90 89 88 88 89 87 84 80 78 76 74 74 73 72 72 73 73 69 66 63 62 62 62 63 63 68 76 86 90 89 88 87 88 89 90 90
84 84 84 85 86 84 81 81 81 80 76 70 62 56 51 50 50 50 49 47 44 40 38 51 67 83 92 92 91 92 93 93 90 84 76 71 70 74 78 83 86 88 88 90 92 92 92 92 90 88 87 86 85 84 85 82 78 74 72 70 69 68 68 67 68 68 70 68 66 64 62 62 62 61 61 63 70 78 84 83 83 85 89 91 92 92
83 84 84 85 85 86 85 84 83 81 75 67 61 57 57 58 57 54 49 45 42 38 36 45 60 76 90 88 88 89 92 93 92 88 80 71 67 67 71 76 79 83 85 88 90 91 91 90 88 87 85 84 84 84 83 80 74 68 64 63 63 64 64 64 64 65 66 66 66 64 63 63 62 62 60 61 65 71 76 76 78 81 88 92 93 94
83 84 85 85 86 86 85 85 84 81 76 69 64 61 60 58 54 49 44 42 39 37 35 40 52 66 82 84 88 91 92 92 92 90 84 73 66 62 63 67 72 78 83 86 88 90 90 89 87 86 84 85 86 86 86 83 76 67 61 58 58 59 61 60 60 61 62 63 63 63 63 63 63 63 61 60 62 66 70 72 74 78 84 89 91 92
82 84 86 86 86 86 86 85 84 82 78 74 69 64 58 53 48 44 41 40 39 37 35 37 45 58 73 81 86 90 94 93 92 92 89 78 69 61 58 60 65 73 80 84 86 87 89 88 87 85 84 85 86 87 88 87 80 72 64 60 59 59 60 59 58 58 58 58 60 61 62 63 64 63 62 60 61 63 66 69 72 75 80 84 87 88
81 83 85 86 86 86 86 86 85 83 80 77 71 64 57 52 49 46 44 42 39 36 34 33 39 49 64 77 82 86 95 94 93 92 92 84 74 63 56 56 60 68 78 83 84 84 86 87 86 84 83 82 82 82 84 90 85 76 70 67 66 65 64 62 60 58 58 57 58 58 60 62 63 63 62 60 60 62 64 66 69 72 76 80 82 83
80 82 84 85 85 86 86 86 85 83 81 76 70 64 58 54 50 48 46 42 38 34 31 31 35 43 55 70 76 82 93 94 93 92 94 88 76 63 56 53 56 63 74 84 86 83 82 84 84 81 79 78 76 75 80 90 88 80 74 73 73 73 72 69 66 62 61 58 57 57 58 60 61 62 61 60 60 61 63 64 66 69 73 77 80 83
81 82 84 85 85 85 85 84 83 82 80 76 72 67 63 58 53 49 45 40 37 34 33 33 35 40 48 61 71 78 88 93 93 92 93 90 79 66 56 52 53 59 69 84 88 86 80 81 80 78 74 74 71 70 77 89 89 82 74 75 76 78 78 75 72 68 64 61 58 57 57 59 60 61 60 60 60 61 62 64 64 66 69 74 80 86
82 83 84 85 86 85 83 81 79 79 78 76 74 70 66 60 56 52 48 44 40 38 36 34 34 35 39 51 60 69 78 90 94 93 93 91 83 72 59 53 52 57 64 78 87 88 81 77 76 74 72 77 73 70 73 86 88 82 71 73 76 78 79 78 75 72 68 64 60 57 55 58 60 60 60 60 61 62 63 64 64 64 65 71 80 90
82 84 85 86 85 84 82 80 78 76 75 74 71 68 63 58 55 52 48 45 42 38 34 31 29 29 30 42 51 58 66 85 92 93 92 92 88 78 62 54 52 55 60 70 80 87 84 75 70 68 70 82 80 73 67 78 83 80 72 71 73 76 78 77 76 73 70 65 60 57 55 58 60 61 60 60 61 62 63 64 64 63 62 67 79 90
82 84 85 85 84 84 82 79 76 73 70 66 64 61 59 56 53 50 46 43 39 35 31 29 28 28 29 36 43 50 58 77 88 92 92 92 90 83 66 56 52 53 58 62 72 80 86 77 68 62 64 84 86 76 58 69 78 82 76 74 74 74 76 76 76 74 73 67 61 57 56 58 60 62 62 61 62 63 63 65 65 63 61 66 78 91
83 83 84 84 84 83 81 78 74 70 65 61 59 58 57 54 52 50 46 44 40 36 32 30 31 31 32 33 36 42 50 68 83 92 93 93 92 86 74 61 54 52 54 57 62 70 80 80 74 65 58 78 85 77 60 67 78 85 83 79 77 76 74 74 76 77 76 69 63 58 56 58 60 61 62 62 63 64 64 66 66 64 62 68 79 92
84 84 84 84 83 82 80 77 73 69 63 60 57 55 54 52 50 50 49 48 44 40 34 33 32 31 30 29 30 34 42 60 77 90 93 93 93 90 83 70 60 54 52 53 56 60 70 78 79 73 62 70 77 78 68 77 85 90 88 84 80 76 74 73 76 78 80 74 68 62 59 60 60 60 60 61 63 64 65 67 67 66 63 70 83 95
86 85 84 84 82 80 78 76 72 68 63 59 56 53 50 48 49 51 52 49 44 39 34 32 30 29 28 29 29 30 36 54 72 86 92 93 93 92 90 78 66 57 53 53 52 55 60 72 78 80 74 68 73 78 74 87 92 93 90 85 80 76 73 72 73 76 80 78 74 68 63 62 60 58 58 59 61 63 64 66 66 66 65 73 86 98
86 86 85 83 81 79 76 73 70 66 62 58 55 52 48 47 49 52 50 45 40 36 33 31 29 28 30 31 30 29 32 46 64 80 90 93 93 93 93 84 71 60 56 56 55 55 57 64 72 78 80 76 76 78 78 89 94 94 92 86 80 74 72 70 70 71 76 77 75 71 67 64 60 58 57 57 58 61 63 65 66 66 66 74 87 97
86 86 86 84 80 77 74 71 67 63 60 57 54 51 48 48 48 48 45 41 39 38 35 32 29 28 29 28 26 26 29 40 57 73 87 92 93 93 94 89 77 66 62 59 59 60 60 62 68 73 77 78 79 80 80 87 92 94 93 90 82 75 70 68 67 68 72 76 74 70 66 64 61 59 58 57 58 59 61 64 65 66 66 73 85 96
86 86 86 84 81 77 73 69 65 62 58 55 52 50 48 47 46 44 42 42 42 40 37 32 29 27 26 24 22 24 28 38 50 64 80 88 92 93 94 93 84 74 71 63 61 62 63 64 67 71 74 74 76 78 80 84 88 92 93 92 88 79 71 67 65 66 69 78 76 71 65 63 61 60 58 58 58 58 60 62 64 64 64 69 80 90
86 86 87 86 82 78 73 68 64 60 58 54 52 49 48 46 45 45 46 46 45 41 36 32 28 26 24 23 24 26 30 36 43 54 70 82 89 93 94 94 90 85 80 70 63 60 62 63 66 70 73 73 73 74 76 80 84 88 90 92 90 86 77 69 65 64 66 76 79 77 68 64 62 61 60 58 58 58 60 61 62 63 62 66 74 83
86 86 87 86 84 80 76 70 64 60 57 54 52 49 47 46 46 48 50 50 46 40 35 32 29 26 24 24 24 24 26 30 36 45 58 74 85 91 94 94 94 92 89 78 70 63 60 62 66 70 72 72 72 73 74 76 79 83 87 88 89 88 85 74 68 65 65 70 78 83 79 72 67 64 64 62 61 61 63 63 63 63 63 64 67 73
87 87 88 87 85 82 78 72 66 61 58 55 52 50 48 47 48 50 52 50 46 42 38 35 32 29 26 24 23 22 21 24 30 38 48 66 79 88 93 94 94 94 94 87 79 72 68 68 71 74 76 74 73 74 75 76 77 80 84 85 86 86 86 79 73 68 66 66 74 84 90 84 78 74 72 70 69 69 70 69 68 68 66 66 67 68
87 88 88 88 86 84 79 74 69 63 60 57 55 53 51 51 52 52 53 50 48 45 42 38 35 31 27 24 22 21 21 24 29 35 42 58 72 84 92 93 94 94 95 92 88 83 77 78 80 84 85 80 76 75 76 77 77 77 79 80 81 82 83 80 76 70 66 66 70 78 90 93 91 87 83 81 80 80 80 79 78 77 77 76 77 77
87 88 88 88 88 86 80 76 71 66 62 60 58 57 56 56 55 55 54 51 49 46 43 40 36 32 28 26 23 22 21 24 28 32 37 51 66 79 89 92 93 94 95 94 93 90 86 86 87 90 92 88 84 80 78 78 77 74 73 72 73 75 78 78 76 72 66 66 68 72 84 92 95 94 92 90 89 89 90 89 88 88 89 90 90 90
86 87 88 88 88 87 83 78 73 68 64 62 60 60 60 60 59 57 55 52 50 47 44 40 36 33 30 28 25 22 20 21 24 29 33 46 61 74 85 89 92 94 94 94 94 94 94 90 90 90 91 91 90 88 84 79 75 71 68 65 65 67 71 74 74 72 66 66 67 70 78 89 94 95 94 92 92 92 92 93 94 94 95 96 96 97
86 87 88 88 88 88 86 81 76 71 67 64 63 62 62 62 61 59 56 54 52 50 47 43 39 36 34 32 28 24 18 19 23 28 34 43 55 68 79 86 90 92 93 93 94 95 96 94 91 88 87 88 90 91 90 83 76 68 64 62 62 64 67 70 70 69 65 64 65 69 74 85 91 94 94 93 92 92 90 92 94 95 95 96 97 97
86 86 87 87 87 86 86 84 80 76 70 67 64 63 62 63 62 60 58 56 54 53 52 49 45 42 40 39 34 28 21 22 27 34 39 42 50 60 71 80 87 90 93 92 94 95 96 95 94 92 86 82 83 86 91 87 78 70 64 62 62 63 65 67 67 65 62 61 62 66 70 80 86 90 92 92 92 91 89 90 92 94 94 94 94 94
86 86 86 85 84 84 83 82 82 79 74 69 66 64 63 63 62 61 60 57 56 56 55 54 52 48 45 44 42 37 30 28 32 40 44 44 46 52 60 74 82 88 94 93 93 93 94 95 95 95 92 82 77 79 86 86 81 74 66 62 60 60 62 65 65 63 61 60 60 62 66 75 82 86 85 88 90 90 90 90 92 95 96 95 94 92
86 85 84 82 82 81 80 79 78 77 75 70 67 64 62 61 60 59 57 56 55 56 56 58 58 56 55 54 54 53 47 39 38 40 46 48 49 50 54 66 76 84 92 93 93 93 93 94 95 96 96 89 83 80 85 86 82 76 68 63 60 59 60 61 61 61 60 58 58 60 63 70 77 80 74 78 82 85 86 89 94 97 97 97 96 95
84 83 82 82 82 81 80 78 76 74 73 70 67 64 61 59 58 57 55 54 54 54 55 58 61 64 67 69 70 70 65 55 48 45 49 54 54 53 50 58 68 78 87 92 94 94 93 94 95 96 96 94 90 88 87 86 81 74 67 64 61 60 59 58 58 58 56 56 56 57 59 65 70 73 72 70 72 75 77 80 90 97 96 96 96 96
87 87 86 85 84 83 82 80 77 74 72 70 67 64 60 58 56 54 53 52 52 52 53 56 60 65 71 76 78 78 76 72 66 59 56 58 58 56 50 53 61 71 80 88 92 94 93 94 94 95 95 95 94 93 92 88 82 74 68 64 63 61 59 56 55 53 52 51 52 52 54 60 65 69 70 68 68 69 69 69 80 92 96 95 95 95
88 88 86 86 85 84 83 82 79 77 74 71 68 64 61 58 55 53 51 50 49 50 50 52 56 62 71 76 80 81 81 82 81 77 68 63 60 58 52 52 57 64 74 82 89 93 94 94 93 94 94 95 95 94 93 90 86 79 71 67 64 63 60 57 54 51 48 47 46 47 48 54 60 66 69 70 70 70 68 67 73 84 96 95 95 94
88 88 87 86 86 86 85 83 81 78 76 74 70 66 62 58 56 53 50 48 47 46 47 48 51 57 65 73 78 81 84 86 86 85 79 71 65 61 56 52 54 60 68 76 84 90 94 94 93 93 94 94 94 94 93 92 88 83 75 69 66 63 61 58 54 50 47 44 43 43 44 50 57 64 70 72 74 74 72 72 76 82 93 93 92 92
88 88 88 87 87 87 86 84 81 79 78 74 71 67 63 60 56 53 50 47 45 44 44 44 46 50 56 64 71 77 82 88 90 89 87 79 74 68 61 55 54 57 64 70 77 85 92 93 93 93 94 94 93 93 92 92 89 84 77 71 66 63 61 58 55 51 47 43 41 40 40 46 54 62 69 73 76 77 76 77 80 84 89 90 89 86
88 88 88 88 88 87 87 85 82 79 78 75 72 68 65 61 58 55 51 48 44 42 40 40 42 44 49 56 62 69 76 85 90 92 92 87 84 80 73 62 57 56 60 65 71 78 88 92 93 92 94 93 92 91 90 90 88 84 79 72 67 63 60 58 54 50 46 42 40 38 38 42 48 56 65 71 75 77 78 78 81 84 86 85 82 80
88 88 88 88 88 88 88 87 84 80 77 74 72 70 68 65 62 58 54 49 45 42 39 37 38 40 44 50 55 61 68 79 87 92 92 92 92 90 87 76 66 60 60 63 67 73 85 92 92 92 94 93 92 90 88 87 86 84 80 74 69 64 60 57 54 49 45 42 38 37 36 39 43 50 60 66 71 74 76 77 78 80 81 80 79 79
88 88 88 88 88 88 89 88 86 83 78 74 72 70 69 68 66 63 58 54 49 45 41 38 36 37 40 45 50 56 62 72 83 90 92 92 92 92 92 87 78 71 68 67 68 74 84 91 92 92 93 94 92 90 88 86 84 83 81 76 71 66 61 57 53 48 44 40 38 36 36 38 42 48 56 62 66 71 75 76 77 78 79 81 84 86
88 88 88 87 88 88 88 89 88 86 82 77 73 70 69 69 69 68 66 61 57 52 49 44 40 38 39 43 48 53 58 66 77 87 90 92 92 92 93 91 88 83 78 74 74 78 87 92 92 91 91 93 93 91 88 86 84 82 81 78 73 68 62 57 52 48 43 40 37 35 36 38 42 48 54 60 64 70 76 77 79 81 84 87 90 93
Wind_Speed
15 18 21 25 28 31 35 41 45 47 46 42 39 35 34 33 34 34 32 32 34 38 43 49 54 58 63 66 65 60 54 52 57 62 62 60 57 54 51 52 55 57 55 52 50 50 49 49 50 49 48 48 46 43 40 37 36 35 37 38 37 35 34 39 46 52 54 54 53 53 53 53 53 52 52 52 51 51 50 48 46 45 44 44 43 43
13 15 19 23 27 30 32 37 43 47 48 46 43 39 35 33 32 31 29 28 29 32 37 42 47 52 57 63 65 62 56 52 53 57 61 62 60 57 54 53 56 58 56 53 50 50 51 51 51 51 50 50 49 46 43 41 40 39 39 37 36 36 36 38 42 47 49 50 50 51 52 53 53 53 52 52 51 50 49 47 46 45 44 43 43 43
10 13 17 22 26 28 30 34 40 45 48 48 46 42 38 34 31 29 27 26 26 27 30 35 40 46 51 58 63 64 59 53 51 53 58 62 62 60 57 55 56 59 58 55 53 51 52 52 52 52 52 51 50 48 45 43 42 41 41 40 39 37 37 39 42 44 46 48 49 50 51 53 53 53 53 52 52 51 49 47 46 45 44 43 43 43
9 12 16 19 23 27 29 32 36 42 46 46 46 44 40 37 33 30 27 25 24 24 26 29 34 40 45 52 58 63 62 56 51 50 54 59 61 62 60 59 58 59 59 57 55 53 53 53 53 53 52 53 52 49 47 45 44 43 42 42 41 39 37 38 39 39 40 42 47 51 51 51 51 52 52 52 52 51 49 48 46 45 43 42 42 43
9 12 13 15 19 24 28 30 34 38 42 43 44 44 42 40 36 32 28 24 24 26 27 27 29 35 40 46 53 59 62 59 54 50 50 53 57 59 61 62 61 60 60 59 56 55 54 53 53 53 53 53 52 51 48 47 45 44 43 43 43 41 38 35 35 34 32 32 39 47 51 48 47 48 49 50 50 50 49 48 47 45 44 42 41 42
8 10 12 14 17 21 26 29 32 35 38 40 42 43 43 42 39 35 30 25 25 27 29 26 27 31 36 42 48 55 60 60 56 51 48 48 50 53 57 61 62 62 62 61 59 57 55 54 53 53 53 52 52 51 50 48 47 46 45 44 44 43 41 36 34 32 28 25 29 38 46 45 43 42 44 46 47 48 48 47 47 46 45 43 41 41
7 8 11 13 16 19 23 27 30 32 35 37 39 42 43 43 41 38 33 29 26 26 27 26 26 28 32 38 44 50 56 59 57 53 48 44 42 44 49 55 61 65 64 64 62 59 56 53 52 52 52 52 52 52 51 50 49 48 46 45 45 44 43 40 37 34 30 27 26 29 34 37 38 38 39 41 44 45 46 46 46 46 46 45 43 42
7 8 11 13 15 17 20 24 27 29 32 34 36 38 41 42 42 40 37 33 29 26 25 25 25 26 29 34 39 45 50 55 57 56 51 44 39 38 40 48 57 64 66 66 65 61 56 50 48 49 52 52 52 52 51 51 50 49 48 46 45 44 44 42 40 38 35 33 31 29 28 29 32 34 36 38 40 42 43 44 44 44 45 46 46 44
8 10 12 14 15 17 20 23 25 27 29 32 34 36 39 41 42 42 40 36 31 26 24 24 24 25 27 31 35 40 45 51 55 57 55 49 42 37 37 43 51 60 65 67 66 62 56 48 44 46 51 52 52 52 51 51 50 50 49 47 45 44 43 43 42 40 39 37 35 33 31 29 29 30 32 36 38 39 40 41 42 42 43 44 46 46
8 10 12 13 16 18 20 21 23 26 28 30 33 35 37 38 40 42 41 39 34 29 25 24 24 24 25 27 31 35 40 45 51 56 57 55 49 42 37 39 47 56 63 67 67 64 57 48 42 43 48 51 51 50 51 50 50 50 49 47 45 43 42 42 42 41 40 39 38 37 35 33 31 29 29 33 36 39 40 40 40 41 41 42 43 45
9 10 12 13 15 18 20 20 21 23 26 28 30 33 34 36 37 39 40 41 38 33 28 25 24 23 23 24 27 31 35 40 46 51 55 55 52 45 38 37 42 51 59 64 66 64 58 49 43 42 46 49 49 48 49 49 49 50 49 47 45 43 42 42 42 42 41 40 39 38 37 36 35 33 30 30 33 36 38 40 40 41 41 41 42 43
9 11 13 14 16 18 19 20 20 21 23 25 27 29 31 34 36 37 38 40 40 37 31 26 24 24 24 23 24 27 31 36 41 46 50 51 50 46 40 36 38 46 56 61 64 62 58 49 44 43 46 47 47 46 46 47 48 49 48 47 45 44 42 42 42 42 42 41 40 39 38 38 37 36 34 31 30 32 34 37 39 41 42 42 42 43
9 11 14 16 17 19 20 20 20 20 21 23 26 28 30 33 34 36 37 38 40 40 36 29 25 24 25 25 24 24 26 31 37 42 44 47 48 46 40 36 36 42 51 58 62 61 58 50 46 46 47 48 46 44 44 45 47 48 47 46 45 44 43 42 42 42 42 42 42 41 39 38 38 38 36 34 31 31 32 35 38 40 41 42 43 44
9 12 14 16 18 20 21 21 21 22 23 24 26 28 29 30 31 33 34 36 40 41 38 31 26 24 25 25 25 24 25 27 32 37 40 43 46 46 41 36 35 39 46 54 59 60 59 54 51 50 51 50 47 45 43 44 46 47 46 45 44 44 43 42 42 42 42 43 42 42 40 39 39 38 37 36 34 32 32 33 35 38 40 41 43 44
9 13 16 18 20 21 22 22 22 23 23 24 24 25 26 27 28 30 32 35 39 41 39 33 27 24 25 26 27 26 25 26 28 32 36 40 44 45 42 37 35 37 43 50 56 59 60 57 55 54 54 52 49 46 44 44 45 45 45 44 43 43 43 42 42 41 42 42 42 42 41 40 39 39 39 38 36 33 31 31 32 34 36 39 41 43
9 12 16 19 21 22 23 23 22 22 22 22 23 23 24 26 28 30 32 34 37 39 39 36 30 26 26 28 28 28 26 26 26 29 33 37 42 45 43 38 35 35 40 47 53 58 59 58 57 56 55 54 51 48 45 44 44 44 44 43 42 42 42 42 42 41 41 42 42 42 42 41 40 40 40 39 38 35 32 31 30 31 33 35 38 40
9 12 16 20 22 23 23 23 22 22 22 23 23 25 26 28 30 31 32 33 35 36 38 37 34 30 29 29 29 28 27 26 25 27 30 34 39 43 43 39 36 35 37 43 49 55 57 58 57 56 55 55 53 49 46 45 45 45 44 43 42 42 42 42 42 42 41 42 42 42 42 41 41 41 41 41 40 37 35 32 30 30 30 32 35 37
9 11 15 20 23 23 23 23 22 22 23 24 25 26 27 28 28 29 30 31 32 34 37 38 37 34 31 31 30 29 28 26 25 26 28 31 37 42 43 41 38 35 35 39 45 51 55 57 56 55 54 53 51 49 46 45 45 45 44 43 42 42 41 41 42 42 42 42 42 42 42 42 41 41 41 41 41 39 37 34 32 30 31 32 34 36
9 11 15 20 23 23 23 23 23 23 24 24 25 25 25 26 26 27 28 29 31 34 36 38 37 36 33 32 31 31 29 27 26 26 26 29 34 39 43 42 39 36 34 36 42 48 52 54 54 54 53 50 48 46 44 44 45 45 45 44 43 42 41 41 42 42 42 42 42 43 43 42 42 41 41 41 41 40 38 36 33 31 31 33 35 36
9 11 14 19 22 23 23 23 24 24 25 25 25 25 25 25 26 27 28 29 31 32 34 36 38 37 36 34 32 31 29 27 27 26 27 28 30 35 40 42 41 38 35 35 39 45 49 49 50 51 52 50 46 44 42 41 42 44 44 44 43 42 41 41 41 41 42 42 43 43 43 43 42 42 41 41 41 41 39 37 35 33 32 33 35 36
9 11 14 18 21 23 23 24 24 24 24 24 24 24 25 26 26 27 28 29 29 30 31 34 37 39 38 37 35 32 30 27 27 27 28 27 28 31 36 40 41 40 37 35 37 41 46 46 46 47 50 49 46 43 40 38 39 42 42 42 42 41 40 40 40 40 40 41 42 43 44 44 43 42 42 41 41 41 40 38 36 34 33 33 34 35
9 10 13 17 21 23 23 24 24 24 24 24 24 25 25 25 26 26 26 27 28 29 31 34 37 39 40 39 37 35 32 29 28 29 29 28 28 30 34 38 40 40 39 37 37 39 42 44 44 45 47 47 45 42 39 36 36 38 40 40 40 40 39 39 39 39 39 40 42 43 44 44 44 43 42 42 41 41 40 39 37 35 34 34 34 35
9 9 12 15 19 22 23 23 23 24 24 24 25 25 25 25 25 26 26 26 27 28 30 33 36 38 39 40 39 37 34 31 29 29 30 30 30 31 32 36 39 40 40 39 38 38 39 42 43 45 45 43 42 41 39 35 35 36 38 39 39 38 38 38 38 38 38 39 41 42 44 44 44 44 43 42 41 41 40 39 38 36 35 35 35 36
8 9 11 14 17 20 22 23 24 24 24 24 24 24 24 24 24 25 25 26 26 27 28 30 32 34 38 40 40 39 37 34 31 29 30 32 33 32 32 34 38 40 41 41 41 41 40 41 43 45 44 40 39 40 39 36 35 35 37 38 38 38 38 37 37 37 37 38 40 41 43 44 44 45 44 43 42 41 40 39 38 37 35 35 36 37
7 9 10 13 16 19 22 23 24 24 24 24 23 23 23 23 23 23 23 24 24 25 26 27 29 33 37 40 42 42 41 39 34 31 31 34 35 34 33 34 37 41 42 42 42 42 43 43 44 45 44 39 37 39 40 38 36 36 37 37 38 37 37 37 36 36 36 37 39 41 43 43 44 44 44 43 42 41 41 40 39 37 36 35 36 37
6 8 10 12 15 18 20 22 23 23 23 23 23 24 24 24 23 23 23 23 24 25 25 27 30 33 36 39 41 43 44 42 37 33 32 34 36 35 34 35 37 40 42 43 42 43 45 46 46 47 46 39 36 39 42 40 37 36 37 37 37 37 37 37 36 35 35 37 39 41 42 43 44 44 44 43 42 41 41 40 39 38 37 36 37 38
6 8 10 12 15 17 19 20 21 22 22 23 23 24 24 24 24 24 24 25 25 26 26 28 29 31 32 35 39 43 44 44 40 35 32 33 36 37 36 36 37 40 42 43 43 43 44 47 48 49 50 42 38 40 43 40 38 37 37 37 37 37 37 37 36 35 34 36 38 40 42 43 43 43 43 43 42 41 40 40 40 39 38 37 38 39
4 8 10 13 15 17 19 20 21 21 22 23 23 24 24 24 24 24 24 24 24 24 25 26 27 28 29 33 37 41 44 45 42 37 32 33 35 37 38 37 37 39 41 43 43 43 43 45 48 51 52 48 43 41 42 40 38 38 38 37 37 37 37 37 36 35 34 35 37 39 41 42 42 43 43 43 42 41 41 40 40 40 39 38 38 39
4 7 10 12 15 17 18 19 20 21 22 23 23 24 24 24 24 24 23 22 22 22 24 24 25 27 29 32 35 39 42 45 43 39 33 32 34 37 39 38 38 39 40 41 42 42 41 42 45 49 52 52 48 43 43 40 39 39 39 38 37 37 37 37 37 36 34 34 36 38 39 40 41 42 43 43 42 42 41 41 41 41 40 39 38 39
4 7 10 12 15 16 18 19 20 21 22 22 23 24 24 24 24 23 22 21 21 22 23 24 25 26 28 29 32 35 40 43 43 40 35 33 34 37 39 39 39 39 40 40 40 39 40 41 42 44 48 51 51 48 46 41 39 38 39 39 38 37 37 37 37 36 34 34 34 36 37 39 40 41 42 43 42 42 42 42 42 42 41 39 38 39
5 7 10 13 15 16 18 19 20 21 22 22 23 23 23 23 23 22 21 21 21 22 22 23 24 25 27 28 30 34 38 41 42 41 37 34 34 35 37 40 41 40 40 40 40 39 39 40 40 41 42 45 49 51 49 44 39 37 38 39 38 37 36 36 36 35 34 33 34 35 36 38 39 40 41 42 42 42 42 42 42 42 42 40 39 38
6 7 9 13 15 16 17 19 20 21 21 22 22 22 22 22 22 22 21 21 21 20 20 21 23 24 26 28 31 34 37 39 41 41 39 36 34 34 35 40 42 41 41 41 41 41 40 39 40 40 39 40 42 46 50 48 43 38 37 38 38 37 36 35 35 35 34 32 33 34 36 37 38 40 41 41 42 42 42 42 42 43 43 42 41 40
6 6 8 12 15 16 17 18 20 21 21 22 22 22 22 22 22 22 21 20 19 19 19 20 22 23 25 27 30 32 34 36 38 41 41 38 34 32 34 39 42 42 41 41 41 41 41 40 40 40 39 38 38 40 44 46 45 43 41 40 38 37 36 35 34 35 34 33 32 33 35 37 38 39 40 41 41 41 42 42 42 43 43 43 43 42
6 6 7 11 14 16 17 18 19 20 21 21 22 22 22 22 22 21 20 19 18 18 19 20 21 22 24 26 28 30 32 35 38 41 41 39 36 33 32 37 41 43 43 42 42 41 41 41 40 40 39 38 38 38 39 42 44 45 45 43 41 39 37 35 35 34 35 34 33 32 34 36 38 39 39 40 40 41 41 41 41 42 42 43 44 43
6 7 7 10 13 15 16 17 19 20 21 21 21 21 21 21 21 20 19 19 18 18 18 19 20 21 23 25 27 29 32 35 38 40 41 40 38 35 31 34 39 43 44 44 43 42 42 42 41 41 40 40 39 38 38 39 41 43 44 44 43 42 39 37 35 35 35 35 34 33 33 35 37 39 39 40 40 40 40 40 40 41 41 42 43 43
7 8 8 9 12 14 16 17 18 19 20 21 21 21 21 21 21 20 19 18 18 17 17 17 18 20 22 24 26 29 32 35 36 37 39 40 39 36 32 31 34 40 44 45 45 44 43 43 43 42 41 40 40 40 40 40 40 40 41 41 42 42 41 38 36 35 35 36 36 36 35 36 37 39 39 39 39 39 39 39 40 40 40 40 41 41
7 8 8 9 10 12 14 16 17 19 20 21 21 22 22 21 20 20 18 17 17 16 16 16 17 19 21 23 25 28 31 32 33 34 37 39 39 37 34 29 30 35 41 44 46 46 46 45 45 43 42 41 41 41 41 41 40 39 39 39 39 39 39 39 37 36 36 36 37 37 36 36 37 39 39 39 39 39 39 39 39 39 39 39 39 39
6 7 9 9 10 11 13 15 17 18 19 21 21 22 22 22 21 20 18 17 16 15 15 16 17 18 20 22 24 27 30 31 33 34 36 38 39 37 35 29 27 30 37 41 44 46 47 47 47 46 44 43 42 42 42 42 41 40 40 39 39 38 38 38 38 37 37 37 37 37 37 37 37 38 39 39 39 39 39 39 39 39 39 39 39 38
6 8 9 10 10 10 11 13 15 17 18 20 21 22 22 22 21 20 19 17 16 15 14 15 16 17 19 20 23 26 29 31 33 34 34 36 38 38 36 31 26 27 32 37 41 44 47 48 49 48 47 45 44 43 43 43 42 41 40 40 39 39 39 39 39 39 38 38 37 38 39 38 37 36 37 38 38 38 39 39 39 39 39 39 39 38
7 8 9 10 10 10 11 11 13 15 17 18 20 21 22 22 21 20 19 17 16 14 14 14 15 16 18 19 21 24 27 30 31 31 31 33 35 37 36 33 29 27 28 33 37 40 44 47 48 48 47 46 45 44 45 45 43 41 40 41 41 42 42 41 41 41 40 39 39 39 40 41 40 39 38 38 38 38 39 39 38 38 39 39 40 39
7 8 9 10 11 11 11 11 12 14 16 17 19 21 22 22 22 21 19 18 16 15 14 14 15 16 18 19 21 23 26 28 29 29 29 30 33 35 37 36 32 28 28 30 34 37 40 43 45 46 47 47 46 46 46 46 44 42 41 42 43 44 44 43 43 42 42 41 40 40 41 42 42 42 42 41 40 40 40 39 39 39 40 40 40 39
8 8 9 9 10 10 11 11 11 13 15 16 18 20 22 22 22 22 20 19 17 15 14 15 16 17 18 19 20 22 24 27 29 30 30 29 30 33 36 37 35 31 29 30 32 34 36 39 41 44 46 48 48 49 49 48 46 44 43 43 44 44 45 45 44 44 43 43 42 42 42 43 43 44 44 43 43 42 42 41 40 40 41 41 40 39
9 8 9 9 9 10 10 10 11 12 13 15 17 19 21 22 22 22 21 19 18 16 15 15 16 17 19 19 20 21 23 26 28 30 30 29 28 30 34 38 38 35 31 30 30 31 32 34 37 41 45 48 50 51 51 50 48 47 45 45 45 46 46 47 47 46 45 45 44 44 44 44 44 44 44 44 44 44 44 44 42 41 41 41 40 39
10 9 9 9 10 10 10 10 11 11 11 13 15 18 20 21 22 22 21 20 18 17 15 14 15 17 18 19 20 21 22 24 26 28 28 27 26 27 32 37 40 38 34 31 29 29 30 31 34 38 43 47 49 51 52 52 51 49 48 48 47 48 49 49 49 48 47 46 46 46 45 45 44 43 43 43 43 44 45 45 44 41 38 38 38 37
12 11 11 10 10 11 11 11 11 10 10 11 13 16 18 20 21 22 22 21 19 18 16 15 15 16 18 19 19 20 22 24 25 26 27 26 25 25 30 36 40 40 37 33 30 28 28 30 33 36 40 44 48 50 51 52 52 51 51 50 50 50 50 50 49 48 48 48 47 47 46 45 44 43 42 43 43 43 44 45 45 42 38 37 37 37
14 13 12 11 11 11 11 11 10 10 9 9 11 14 16 19 20 21 22 21 20 19 17 16 16 16 18 19 19 20 21 23 24 25 26 26 26 26 28 34 39 41 40 36 32 28 28 30 33 36 38 42 46 49 50 51 52 52 52 52 52 52 52 51 50 49 49 48 48 47 47 46 44 43 43 43 43 43 43 45 45 44 40 39 40 40
15 14 13 13 12 12 11 11 10 10 9 8 9 11 14 16 18 20 21 21 21 20 19 17 16 17 17 18 18 19 20 23 24 25 26 27 27 27 28 32 37 40 41 38 34 30 28 31 34 37 38 41 45 48 49 50 50 51 53 53 53 53 52 52 51 51 50 49 48 48 47 46 45 44 43 43 42 43 43 44 45 45 44 43 44 43
16 15 14 13 12 12 11 10 10 9 8 8 8 10 12 14 16 18 20 21 22 21 20 19 18 17 17 17 18 19 21 23 25 26 27 28 28 29 29 31 34 37 39 38 35 32 30 31 35 38 40 42 45 47 49 49 50 51 52 53 53 53 53 53 52 52 51 49 49 48 48 47 46 45 44 42 42 42 43 44 45 45 45 45 44 43
16 15 14 14 13 11 10 10 9 8 8 7 7 8 10 12 13 15 18 20 21 21 21 20 19 18 18 18 18 19 21 23 24 26 27 29 30 31 31 31 33 35 37 37 36 34 32 32 36 39 41 42 44 47 49 49 50 50 51 52 52 53 53 53 53 52 51 50 49 49 48 48 47 46 44 43 42 42 42 42 43 43 43 42 41 39
15 15 14 13 13 11 10 9 8 7 7 7 7 7 8 10 11 13 15 18 20 21 21 21 20 19 19 18 18 19 21 23 24 25 26 28 30 31 33 33 33 34 35 36 36 35 34 34 36 40 42 42 43 45 47 49 50 50 50 51 51 52 52 53 53 52 52 51 50 50 49 49 48 46 45 43 42 41 41 40 40 40 39 39 38 37
14 14 14 13 12 11 10 8 7 7 6 6 6 7 8 9 10 12 13 15 18 19 20 20 20 20 19 19 18 18 20 22 24 24 24 25 26 28 31 34 35 35 36 36 36 36 35 35 37 40 43 42 43 44 46 48 49 50 50 50 51 52 52 52 53 53 52 51 51 50 50 49 48 47 46 44 43 42 40 39 39 38 38 37 37 36
Wind_Direction
219 217 218 218 218 217 216 214 213 213 214 213 212 209 208 208 210 213 215 218 223 228 231 233 232 231 229 226 222 216 208 200 197 197 198 198 197 196 196 196 195 193 191 191 194 198 199 199 200 201 201 199 197 194 192 189 187 187 189 192 197 200 198 195 197 202 206 209 211 212 211 209 208 206 204 203 203 203 204 204 204 204 204 204 205 206
225 220 218 218 218 218 218 217 215 214 215 216 215 213 210 209 209 210 211 212 217 223 229 232 234 233 231 228 224 218 211 202 197 196 198 199 198 197 197 196 195 193 190 189 191 196 199 200 201 201 202 201 200 198 196 193 192 193 195 197 199 200 200 198 199 202 206 210 212 214 213 211 208 206 204 203 202 202 203 203 203 204 204 204 205 205
228 219 217 218 218 218 218 219 217 215 215 216 217 216 214 211 209 208 208 207 209 215 223 229 233 234 232 230 226 221 215 206 199 196 197 199 200 200 198 196 194 192 189 187 189 194 198 199 200 201 202 202 202 201 199 197 196 197 198 199 200 200 200 201 203 206 209 212 215 216 215 210 207 204 203 202 202 202 202 202 203 203 204 205 204 204
227 218 216 217 217 217 218 219 218 217 216 217 218 217 216 214 212 209 207 204 203 206 214 223 230 233 233 231 228 224 219 211 203 197 196 198 200 201 200 197 194 191 189 188 189 192 196 198 199 200 201 202 203 203 201 199 198 198 199 199 200 200 201 202 204 207 211 214 216 215 212 206 202 200 200 200 201 202 202 203 203 203 204 204 204 204
228 221 216 215 216 217 218 218 219 218 217 217 218 219 218 217 215 213 209 204 203 207 211 216 224 229 232 231 229 226 222 216 208 199 195 196 198 200 200 198 195 190 187 187 188 191 194 196 198 199 200 201 203 203 202 200 199 199 199 200 200 200 200 200 203 206 209 212 213 211 206 199 196 195 196 198 200 201 202 203 203 203 204 204 203 203
231 222 214 211 213 215 217 218 219 219 218 218 218 219 219 219 218 216 213 208 207 209 211 212 217 224 229 230 230 228 225 220 212 203 196 194 196 198 199 198 194 189 186 186 188 189 191 193 196 197 198 200 201 202 201 200 199 199 200 201 201 201 200 199 200 201 201 201 204 204 202 197 193 192 194 196 199 201 202 204 204 204 204 204 204 204
233 221 211 207 209 212 214 216 218 219 219 219 219 220 220 220 219 217 215 212 209 206 206 208 212 219 226 229 230 229 227 223 216 207 199 195 195 197 198 196 192 188 185 186 187 188 188 190 193 195 197 198 199 200 200 200 199 200 200 202 202 202 201 200 199 196 192 189 191 195 197 197 195 194 195 197 199 201 202 203 204 205 206 206 206 206
226 213 207 205 205 208 212 215 217 217 218 218 219 220 221 221 220 219 217 216 212 206 203 205 208 214 223 228 230 231 230 226 220 212 205 201 200 201 202 199 193 188 184 186 187 187 185 186 189 193 195 196 197 198 198 199 199 199 200 201 202 203 203 201 199 196 191 188 187 188 190 192 194 196 197 199 201 202 202 203 204 205 206 207 208 209
221 209 204 200 199 201 206 211 213 215 216 217 218 219 220 221 221 221 221 219 215 209 204 201 203 209 219 225 229 232 232 229 224 217 211 207 207 208 209 206 198 190 185 184 184 183 180 178 181 187 192 194 195 196 197 198 198 199 199 200 202 202 203 202 200 198 195 192 190 190 190 190 191 194 198 200 202 203 204 204 204 205 206 208 210 211
222 210 202 196 195 196 197 200 205 210 213 215 217 217 218 220 221 222 222 221 216 211 205 201 200 203 212 222 228 232 234 232 228 222 217 214 212 213 214 212 204 195 188 185 182 180 176 173 175 181 187 191 192 194 195 197 198 198 198 199 200 201 202 202 201 200 199 197 196 195 195 194 194 194 195 198 201 203 204 205 206 206 207 209 210 212
222 208 198 193 193 194 194 193 196 201 207 211 215 217 218 220 221 222 223 222 220 215 208 203 199 199 204 215 226 232 235 234 232 227 223 219 217 216 216 216 211 203 195 189 184 180 176 174 175 179 183 187 189 192 194 196 197 197 197 198 199 200 201 201 202 202 201 201 200 199 199 199 198 198 197 197 199 201 203 205 207 208 209 210 211 213
219 204 194 189 189 190 191 191 193 196 201 207 211 215 217 220 222 222 222 223 222 218 212 206 200 197 200 208 219 229 234 235 234 231 227 223 219 216 216 217 216 210 203 196 191 186 182 180 180 182 183 185 187 190 193 195 196 196 197 198 198 199 200 201 202 202 203 202 202 202 202 202 202 202 201 201 200 200 202 205 207 209 210 212 212 213
216 203 192 187 186 186 185 185 187 192 198 202 206 209 212 216 218 220 221 222 222 219 214 209 202 197 200 206 213 222 230 234 235 233 229 224 219 216 216 217 216 213 208 202 197 192 187 185 185 185 185 186 187 189 192 194 196 196 197 198 198 199 200 201 202 203 204 204 203 203 203 204 204 204 204 203 203 203 204 206 208 210 212 213 214 214
212 200 191 187 184 182 180 179 180 184 190 195 199 201 204 207 211 214 217 220 222 220 215 211 204 198 198 204 211 218 225 232 235 235 231 225 219 215 215 216 215 213 210 205 200 195 191 188 187 187 187 187 188 189 191 193 195 196 197 198 199 201 202 202 203 204 205 205 205 204 204 205 205 205 204 204 204 205 206 207 209 210 212 214 215 216
210 198 189 185 182 180 177 177 178 180 184 187 191 195 199 204 208 212 215 218 221 220 216 213 207 200 197 202 208 214 220 228 234 236 233 226 220 216 214 215 215 214 211 207 203 199 195 191 189 188 189 189 189 190 191 193 194 195 196 199 201 202 203 204 205 205 206 206 206 205 205 205 205 205 204 204 205 206 207 208 210 211 213 214 216 217
214 201 191 184 180 177 176 176 176 178 180 183 187 192 198 204 208 211 213 216 218 218 215 212 209 203 200 202 205 209 214 221 229 233 233 228 221 216 215 216 216 215 213 210 206 202 199 195 192 191 190 191 191 191 192 193 193 194 196 199 201 203 205 206 206 207 207 207 207 206 206 206 205 205 205 204 205 207 209 210 212 213 214 214 215 216
215 204 194 185 180 177 176 175 175 176 179 183 188 193 197 200 203 206 208 212 214 215 213 210 208 205 202 202 202 204 208 214 222 229 231 229 223 218 215 216 217 216 214 212 209 205 201 198 196 194 192 192 192 193 193 194 194 195 196 198 201 203 205 206 207 208 208 208 208 207 207 206 206 206 205 205 206 208 210 212 214 215 215 215 216 216
215 205 195 186 181 178 176 175 175 177 181 184 188 191 194 196 198 201 204 208 211 212 211 209 207 204 202 199 198 201 205 207 214 222 228 229 227 222 218 217 217 217 216 214 210 207 203 200 198 196 194 193 192 193 193 195 196 197 198 200 201 203 204 206 207 208 209 209 208 207 207 207 206 206 206 206 207 208 210 213 214 215 216 216 217 217
217 204 196 190 186 182 178 176 176 179 182 185 187 188 190 193 197 200 203 206 208 209 208 208 206 204 201 199 198 197 198 198 203 211 221 227 228 225 220 218 218 218 218 216 212 208 204 200 198 197 195 193 192 191 192 195 197 198 199 200 201 202 203 204 206 207 208 208 208 207 207 207 206 206 206 206 207 208 210 212 214 215 214 214 215 216
216 205 199 194 190 185 181 178 178 180 182 184 184 186 188 193 196 199 201 203 205 206 206 205 204 203 201 200 199 196 193 192 194 200 210 220 225 226 222 220 218 219 220 218 214 209 204 200 198 198 197 195 193 191 192 195 197 197 197 198 199 200 201 202 203 205 206 207 207 207 207 207 206 206 206 206 207 208 209 211 213 214 213 213 213 214
216 207 200 194 191 188 185 181 180 181 183 183 183 185 189 192 194 196 198 200 202 203 203 204 204 204 202 200 198 195 193 190 189 194 203 212 220 224 223 220 218 218 219 218 215 210 206 202 199 198 198 196 195 193 192 195 196 196 195 195 196 197 198 199 201 202 204 205 206 207 207 207 207 206 206 206 206 207 209 210 212 213 213 213 213 213
215 207 198 194 192 191 188 184 182 183 183 183 185 187 190 192 193 195 197 198 199 200 201 202 204 204 203 200 198 196 195 191 190 192 198 204 213 220 223 220 218 217 217 216 214 211 207 204 202 199 197 195 194 193 193 194 196 195 193 193 193 194 196 197 198 200 202 204 205 206 206 206 207 206 206 206 206 207 208 209 211 212 213 214 214 214
212 203 196 193 193 193 191 188 185 185 185 185 186 187 188 190 191 193 195 197 198 198 200 201 203 204 203 201 199 198 197 195 192 191 194 199 208 216 219 217 215 214 215 214 212 210 207 205 204 202 198 195 194 193 192 193 195 195 193 192 192 193 194 195 196 198 201 202 204 205 205 206 206 206 206 206 206 207 208 209 210 212 213 214 214 214
205 198 193 191 191 191 192 191 190 188 188 188 187 187 188 190 191 193 194 195 196 198 199 201 202 203 203 202 200 199 198 197 194 192 192 196 203 209 213 214 213 212 213 213 211 208 205 204 204 203 199 197 196 195 192 192 194 196 195 193 193 193 193 193 194 197 199 201 202 204 204 204 205 205 205 205 206 207 207 208 210 211 213 214 215 214
201 194 189 186 186 188 191 192 192 191 190 189 187 187 189 191 192 193 194 195 195 197 197 198 200 202 203 202 201 200 199 198 195 193 192 193 197 203 208 211 211 211 211 212 211 209 206 204 204 203 200 198 198 197 194 192 193 195 196 195 194 193 193 192 193 195 197 199 200 202 203 203 203 204 204 205 205 206 207 208 209 211 212 213 214 212
196 188 184 182 183 185 188 190 191 190 189 187 186 187 189 190 191 191 193 194 195 196 196 197 199 202 203 203 203 203 202 199 197 194 192 191 193 198 204 208 209 210 211 212 212 210 207 205 205 204 201 198 198 197 195 192 192 194 195 195 194 193 193 192 193 194 195 197 199 200 201 202 202 203 203 204 205 205 206 207 208 210 212 212 213 210
185 180 178 178 180 182 184 186 186 187 186 185 185 186 188 188 189 190 191 193 194 194 195 197 200 202 203 204 205 205 203 201 199 196 193 190 191 195 201 205 207 209 211 212 212 211 209 207 206 206 204 201 198 196 193 191 192 194 194 194 193 193 192 192 192 193 193 195 197 199 200 201 201 202 203 203 204 205 206 207 208 209 211 212 212 208
170 171 172 174 176 179 181 182 183 183 183 182 183 185 186 187 188 189 191 191 192 192 194 197 199 201 202 204 205 205 204 203 202 198 194 190 190 193 199 201 204 207 210 212 213 212 210 208 207 206 206 205 202 196 191 190 192 193 193 192 191 191 191 191 192 192 192 194 196 198 199 200 201 201 202 203 204 205 206 206 208 209 210 211 210 206
152 161 166 169 172 175 178 179 180 180 180 181 182 183 185 187 188 188 189 188 189 191 194 196 198 200 202 204 205 205 205 205 204 200 196 192 190 191 196 198 201 204 208 211 213 213 212 210 208 207 207 208 206 200 192 190 190 191 190 190 189 189 190 191 192 193 192 193 194 196 197 198 199 200 201 202 203 204 205 206 207 208 210 210 209 203
133 150 161 165 168 171 174 176 177 178 179 180 181 183 184 186 186 186 185 187 189 191 193 194 196 199 203 205 206 206 206 206 205 202 198 195 191 190 192 195 199 202 205 208 210 213 214 213 211 209 208 209 207 204 198 195 191 188 186 187 187 188 189 191 193 194 193 193 193 194 195 197 198 200 201 202 203 204 205 206 207 208 209 210 207 201
112 137 153 162 165 167 170 172 174 176 178 179 181 182 183 184 184 184 185 188 190 191 191 192 194 198 201 203 204 205 206 206 205 203 200 197 194 190 188 192 196 200 202 205 207 209 212 214 214 213 211 211 209 207 204 202 197 191 186 185 186 187 189 191 193 194 194 193 193 194 195 196 198 199 200 201 202 203 205 206 207 209 210 210 208 202
92 119 145 156 161 163 166 169 172 174 176 178 179 180 181 181 182 184 186 188 188 188 189 191 194 197 200 201 203 205 206 206 206 204 202 201 197 191 187 189 193 196 200 203 205 207 209 212 214 215 214 213 212 210 208 207 204 198 192 188 187 187 189 191 193 194 195 194 193 194 195 197 198 200 201 201 202 204 205 206 208 209 210 210 209 206
77 98 135 151 156 159 162 166 169 172 174 176 177 178 179 180 181 183 185 185 185 186 188 191 194 197 199 202 204 205 206 207 207 207 205 203 200 194 187 186 189 193 198 201 204 206 207 209 212 213 214 214 213 212 211 210 208 204 199 194 191 190 190 191 193 195 195 194 194 194 195 197 199 200 201 202 202 204 205 206 208 209 210 211 211 210
72 83 121 145 152 155 158 162 166 169 171 173 174 175 176 178 179 180 181 182 184 187 189 191 194 196 199 202 204 205 206 208 209 209 208 205 202 197 189 185 186 190 195 199 202 204 206 208 209 211 212 212 212 212 213 213 213 210 206 201 197 194 193 193 194 196 196 195 193 193 195 197 199 200 201 202 202 203 205 206 207 209 210 212 213 213
73 78 105 135 147 152 153 157 161 165 168 170 171 173 174 175 177 177 178 180 184 187 189 191 193 196 198 201 203 204 205 207 209 210 209 207 205 201 193 185 184 186 191 196 200 201 202 204 206 207 209 210 210 211 211 213 214 214 211 207 203 199 197 195 196 197 197 196 194 193 194 196 198 199 200 200 201 202 204 205 206 208 209 212 214 215
73 76 92 121 141 148 151 153 157 161 164 167 169 170 172 173 174 175 176 179 182 185 187 190 194 196 199 201 203 204 205 206 208 209 209 207 206 204 199 189 184 184 188 193 197 200 201 201 203 204 205 207 208 209 210 211 212 212 212 209 206 203 200 199 198 198 199 198 196 194 193 193 194 195 197 198 199 200 201 203 205 206 208 209 212 215
74 75 85 106 129 144 150 151 154 157 161 164 167 168 169 170 171 173 175 177 179 182 185 189 193 197 200 202 204 205 206 206 208 209 210 208 207 205 202 195 186 183 186 190 195 198 200 201 201 201 202 205 207 209 209 209 209 209 209 209 207 205 203 202 201 201 201 201 200 197 194 191 190 191 193 195 196 197 199 200 202 204 204 205 206 208
77 77 84 99 118 135 146 150 153 156 159 162 165 167 168 169 170 171 172 174 176 179 184 188 192 196 199 202 205 206 206 206 208 210 211 209 208 206 205 199 190 184 185 189 193 196 198 200 200 200 200 203 206 208 208 208 207 207 208 208 208 207 206 205 204 203 203 203 203 201 197 193 190 189 190 192 194 196 198 199 201 202 202 201 201 202
83 88 94 103 114 126 138 147 153 156 158 161 163 165 167 168 169 169 171 171 173 177 181 186 190 193 196 200 204 206 206 206 207 209 210 209 208 207 205 201 193 186 185 187 191 194 197 199 201 201 201 202 204 206 207 207 207 207 208 208 208 208 207 207 206 205 205 205 205 204 201 197 193 190 190 191 194 196 199 200 201 202 203 202 202 202
85 98 106 113 117 121 128 139 148 154 157 160 162 164 166 168 169 170 170 170 171 173 177 183 187 191 194 198 202 205 206 206 206 207 208 209 209 208 206 202 197 189 184 185 187 191 195 197 199 201 202 202 203 204 205 205 205 207 208 208 208 208 208 207 206 206 206 206 207 206 205 201 198 196 195 195 196 199 201 202 203 203 204 204 204 204
80 96 108 115 118 120 124 132 142 150 155 159 162 165 167 169 170 170 170 170 170 170 174 179 184 188 191 194 198 202 205 205 205 205 206 208 210 209 207 204 200 195 188 184 184 187 191 193 196 199 202 203 204 205 204 203 203 205 208 210 210 210 208 207 206 206 206 206 207 208 207 205 203 202 201 200 200 201 202 203 204 203 203 204 205 205
79 91 102 111 116 119 122 128 137 146 153 159 163 166 168 169 170 170 170 169 169 169 171 177 181 183 184 188 193 197 201 203 204 204 205 207 209 209 208 206 203 199 193 187 184 184 186 189 192 196 199 202 204 204 204 203 203 205 209 212 213 212 210 208 207 206 206 206 207 207 207 206 206 205 205 204 203 203 203 203 204 203 201 200 200 201
79 91 101 108 113 116 118 123 131 141 150 158 163 166 168 169 170 171 170 170 169 168 170 175 179 181 182 183 185 190 196 200 201 202 203 205 206 207 207 207 206 204 200 194 188 185 184 186 189 193 196 199 202 203 203 203 204 207 210 214 214 213 210 209 207 206 205 205 206 207 207 207 207 207 207 206 206 205 204 204 204 203 200 196 195 195
66 79 93 102 108 112 116 120 125 134 144 155 162 166 168 170 171 172 172 171 170 169 170 172 177 181 183 183 184 186 190 194 196 198 199 200 202 204 206 207 207 207 205 201 196 189 185 185 188 191 194 196 199 201 202 204 205 208 211 213 214 213 212 211 209 207 205 205 206 206 207 207 207 207 207 207 206 206 206 205 205 204 199 196 195 195
58 68 82 92 102 109 115 117 121 127 136 148 159 165 168 170 171 172 172 172 172 172 171 171 175 180 183 184 185 186 187 189 191 193 194 196 198 201 204 206 208 209 209 207 202 196 190 188 189 192 194 195 196 198 200 202 205 208 210 212 212 212 213 213 212 209 207 206 206 206 207 207 207 206 206 206 206 206 206 206 206 205 202 199 199 201
58 65 74 85 96 105 111 114 116 121 128 140 153 162 166 169 171 172 173 174 174 174 173 173 175 180 183 185 186 186 186 186 187 189 191 192 194 197 200 205 208 210 212 212 209 203 196 192 191 193 194 195 195 196 198 200 203 206 209 211 211 210 210 210 211 211 210 209 208 207 207 207 206 205 205 205 205 205 205 205 206 205 204 204 206 209
58 63 70 79 89 99 106 110 112 115 122 134 148 158 164 167 170 171 173 174 175 175 175 176 178 180 183 185 186 186 185 185 185 186 188 189 190 192 195 201 206 209 212 214 214 210 203 197 194 193 194 195 196 196 197 199 201 204 207 209 209 209 208 208 209 210 211 210 209 208 208 207 206 205 205 204 204 204 205 205 205 205 206 208 210 213
57 60 65 71 80 90 99 106 110 115 121 131 145 156 163 166 168 170 172 174 174 175 177 178 180 182 184 185 186 186 186 185 184 185 187 188 188 189 191 195 201 207 211 213 215 214 209 202 197 194 194 195 196 196 196 197 199 202 204 206 207 207 207 207 208 209 209 210 209 209 209 208 207 206 205 204 204 204 204 204 204 205 206 209 211 213
57 59 60 64 71 79 89 100 108 116 123 132 143 154 163 166 169 170 172 173 174 175 177 179 181 183 185 187 187 187 187 187 186 185 185 187 189 190 191 193 197 202 207 211 213 214 212 207 200 196 194 195 196 196 196 197 198 199 201 203 205 206 207 207 207 208 208 208 208 208 209 209 208 207 206 204 204 204 204 204 204 204 206 207 208 209
57 58 59 60 64 70 80 91 104 115 124 133 142 153 163 169 172 173 173 173 174 175 177 179 182 185 188 189 188 188 189 190 188 186 184 186 189 192 193 193 195 199 203 207 210 212 213 210 203 198 195 194 195 196 197 197 197 198 199 201 203 205 206 206 207 207 207 207 208 208 207 208 208 207 206 205 204 204 203 203 202 203 203 203 203 204
56 58 59 60 62 66 73 84 97 111 122 130 138 149 162 170 175 177 178 176 175 176 177 180 183 187 189 190 189 189 191 193 192 190 185 183 186 189 192 193 195 198 202 205 207 210 211 210 205 199 195 192 193 195 196 197 198 198 198 199 201 202 204 205 206 206 206 207 207 207 207 207 206 206 205 205 204 204 203 202 201 200 200 199 199 200